Location: Pordenone
(45.9640°N, 12.6580°E)
Time: 03:47:52
(UTC+02:00)

ISS - Pass Details

Date: 17 May 2021
Orbit: 417 x 422 km, 51.6° (Epoch: 14 June)

Event Time Altitude Azimuth Distance (km) Brightness Sun altitude
Rises 00:27:48 0° 284° (WNW) 2,367 0.4 -24.2°
Reaches altitude 10° 00:30:04 10° 295° (WNW) 1,504 -0.5 -24.2°
Maximum altitude 00:33:05 30° 359° (N) 793 -1.8 -24.3°
Drops below altitude 10° 00:36:07 10° 62° (ENE) 1,507 -0.7 -24.4°
Sets 00:38:23 0° 74° (ENE) 2,373 0.2 -24.4°
